{"data":{"norad_id":58034,"epoch":"2026-05-25T02:50:00.683808Z","epoch_age_seconds":65039,"freshness":"FRESH","line1":"1 58034U 23156G   26145.11806347 -.00002525  00000+0 -73142-4 0  9991","line2":"2 58034  53.1597  83.4740 0001109  83.6158 276.4969 15.30211674148017","mean_motion":15.30211674,"eccentricity":0.0001109,"inclination_deg":53.1597,"raan_deg":83.474,"arg_perigee_deg":83.6158,"mean_anomaly_deg":276.4969,"bstar":-7.3142e-5,"rev_number":14801,"period_min":94.10462777583,"perigee_km":474.42018030223,"apogee_km":475.94024606012,"semimajor_km":6853.3172131812,"source":"CELESTRAK","updated_at":"2026-05-25T13:38:18.495366Z"}}